Weather in Verkholensk

Russia / Irkutsk Oblast     54°05′47″N   105°34′03″E
temp.,
°C
wind,
m/s
gust,
m/s
humid.,
%
clouds,
%
prec.,
mm/h
press.,
hPa
HPBL,
m
11 may, tue
tue1123:00+1w229712 0.0 101628
02:000wnw229777 0.0 101733
05:000wnw229581 0.0 101725
08:00+6nw24655 0.0 1016374
11:00+11nnw464366 0.1 10141807
14:00+12nw4539100 0.3 10132038
17:00+11nnw454599 0.3 10121657
20:00+8wnw2564100 0.7 1013208
12 may, wed
wed1223:00+4wnw228512 0.2 101424
02:00+2nw2292100 0.2 101424
05:00+3nw1487100 0.0 1014391
08:00+3nnw456699 0.3 10141111
11:00+6nw4546100 0.1 10131954
14:00+7nw4538100 0.5 10132467
17:00+7nnw5633100 0.0 10132357
20:00+4n474710 0.1 1014922
13 may, thu
thu1323:00−1nw227452 0.0 101729
02:00−3wnw218217 0.0 101716
05:00−4nw21875 0.0 101821
08:00+2nnw36565 0.0 1017943
11:00+6nnw5634100 0.0 10152109
14:00+4n5861100 0.1 10161432
17:00+6nnw464897 0.2 10151689
20:00+5nnw255143 0.2 1016212
14 may, fri
fri1423:000wnw22675 0.0 101713
02:00−1w22730 0.0 101813
05:00−2wnw11770 0.0 101812
08:00+6nw12450 0.0 1016363
11:00+12nne11260 0.0 10141569
14:00+15e01180 0.0 10112299
17:00+15sse12174 0.0 10092895
20:00+11s113119 0.0 100915
15 may, sat
sat1523:00+5sw21470 0.0 101215
02:00+3s11545 0.0 101210
05:00+1se11605 0.0 101210
08:00+8sw123748 0.0 1011356
11:00+12nw553095 0.0 10101741
14:00+6nw5969100 0.1 1015978
17:00+6wnw5855100 0.3 10151351
20:00+4wnw2450100 0.4 1011114